,,PressureMeas_1m,,PRMeasQMR101_1,,RHStat155_1m_1,,SRMeasQMS101R_1m,,TAStat155_1m_1,,GenWind_1,,GenWind_1,
2017-09-12, 07:00:06,VALID,918.699,VALID,0.0,VALID,98.572,VALID,61.683,VALID,18.689,VALID,74.0,VALID,0.767,
2017-09-12, 07:01:06,VALID,918.699,VALID,0.0,VALID,98.55,VALID,56.435,VALID,18.663,VALID,73.0,VALID,0.948,
2017-09-12, 07:02:06,VALID,918.708,VALID,0.0,VALID,98.526,VALID,53.111,VALID,18.639,VALID,75.0,VALID,1.033,
2017-09-12, 07:03:06,VALID,918.699,VALID,0.0,VALID,98.524,VALID,51.647,VALID,18.614,VALID,90.0,VALID,0.941,
2017-09-12, 07:04:06,VALID,918.716,VALID,0.0,VALID,98.508,VALID,51.482,VALID,18.597,VALID,106.0,VALID,1.243,
2017-09-12, 07:05:06,VALID,918.714,VALID,0.0,VALID,98.508,VALID,51.989,VALID,18.59,VALID,100.0,VALID,1.215,
2017-09-12, 07:06:06,VALID,918.718,VALID,0.0,VALID,98.482,VALID,52.9,VALID,18.581,VALID,93.0,VALID,1.048,
2017-09-12, 07:07:06,VALID,918.727,VALID,0.0,VALID,98.462,VALID,54.506,VALID,18.571,VALID,90.0,VALID,1.153,
2017-09-12, 07:08:06,VALID,918.745,VALID,0.0,VALID,98.473,VALID,56.512,VALID,18.587,VALID,106.0,VALID,1.263,
2017-09-12, 07:09:06,VALID,918.768,VALID,0.0,VALID,98.499,VALID,58.757,VALID,18.627,VALID,109.0,VALID,1.287,
2017-09-12, 07:10:06,VALID,918.779,VALID,0.0,VALID,98.552,VALID,61.141,VALID,18.663,VALID,108.0,VALID,1.177,
2017-09-12, 07:11:06,VALID,918.787,VALID,0.0,VALID,98.532,VALID,63.64,VALID,18.689,VALID,105.0,VALID,1.282,
2017-09-12, 07:12:06,VALID,918.786,VALID,0.0,VALID,98.522,VALID,66.087,VALID,18.694,VALID,101.0,VALID,1.247,
2017-09-12, 07:13:06,VALID,918.798,VALID,0.0,VALID,98.482,VALID,68.532,VALID,18.689,VALID,100.0,VALID,1.393,
2017-09-12, 07:14:06,VALID,918.783,VALID,0.0,VALID,98.446,VALID,70.769,VALID,18.69,VALID,107.0,VALID,1.575,
2017-09-12, 07:15:06,VALID,918.778,VALID,0.0,VALID,98.418,VALID,74.402,VALID,18.704,VALID,107.0,VALID,1.348,
2017-09-12, 07:16:06,VALID,918.779,VALID,0.0,VALID,98.387,VALID,80.335,VALID,18.723,VALID,123.0,VALID,1.196,
2017-09-12, 07:17:06,VALID,918.792,VALID,0.0,VALID,98.415,VALID,87.61,VALID,18.764,VALID,123.0,VALID,1.233,
2017-09-12, 07:18:06,VALID,918.814,VALID,0.0,VALID,98.423,VALID,95.81,VALID,18.805,VALID,124.0,VALID,1.042,
2017-09-12, 07:19:06,VALID,918.838,VALID,0.0,VALID,98.392,VALID,107.465,VALID,18.819,VALID,124.0,VALID,1.261,
2017-09-12, 07:20:06,VALID,918.844,VALID,0.0,VALID,98.342,VALID,119.891,VALID,18.828,VALID,124.0,VALID,1.171,
2017-09-12, 07:21:06,VALID,918.853,VALID,0.0,VALID,98.266,VALID,129.364,VALID,18.856,VALID,110.0,VALID,1.217,
2017-09-12, 07:22:06,VALID,918.86,VALID,0.0,VALID,98.161,VALID,141.411,VALID,18.888,VALID,110.0,VALID,1.055,
2017-09-12, 07:23:06,VALID,918.866,VALID,0.0,VALID,98.1,VALID,156.819,VALID,18.949,VALID,111.0,VALID,1.284,
2017-09-12, 07:24:06,VALID,918.866,VALID,0.0,VALID,97.969,VALID,168.327,VALID,18.979,VALID,121.0,VALID,1.453,
2017-09-12, 07:25:06,VALID,918.86,VALID,0.0,VALID,97.912,VALID,174.987,VALID,19.058,VALID,126.0,VALID,1.153,
2017-09-12, 07:26:06,VALID,918.857,VALID,0.0,VALID,97.978,VALID,182.573,VALID,19.182,VALID,132.0,VALID,1.15,
2017-09-12, 07:27:06,VALID,918.851,VALID,0.0,VALID,97.892,VALID,196.333,VALID,19.257,VALID,129.0,VALID,1.072,
2017-09-12, 07:28:06,VALID,918.853,VALID,0.0,VALID,97.736,VALID,209.514,VALID,19.334,VALID,119.0,VALID,0.857,
2017-09-12, 07:29:06,VALID,918.845,VALID,0.0,VALID,97.758,VALID,219.699,VALID,19.481,VALID,118.0,VALID,1.017,
2017-09-12, 07:30:06,VALID,918.846,VALID,0.0,VALID,97.57,VALID,231.127,VALID,19.568,VALID,116.0,VALID,1.03,
2017-09-12, 07:31:06,VALID,918.847,VALID,0.0,VALID,97.183,VALID,239.965,VALID,19.627,VALID,124.0,VALID,1.253,
2017-09-12, 07:32:06,VALID,918.847,VALID,0.0,VALID,96.89,VALID,247.388,VALID,19.723,VALID,122.0,VALID,1.054,
2017-09-12, 07:33:06,VALID,918.85,VALID,0.0,VALID,96.59,VALID,254.274,VALID,19.81,VALID,127.0,VALID,1.188,
2017-09-12, 07:34:06,VALID,918.84,VALID,0.0,VALID,96.013,VALID,259.26,VALID,19.856,VALID,135.0,VALID,1.374,
2017-09-12, 07:35:06,VALID,918.847,VALID,0.0,VALID,95.969,VALID,264.676,VALID,19.933,VALID,129.0,VALID,1.114,
2017-09-12, 07:36:06,VALID,918.879,VALID,0.0,VALID,95.769,VALID,270.026,VALID,19.992,VALID,129.0,VALID,0.937,
2017-09-12, 07:37:06,VALID,918.909,VALID,0.0,VALID,95.897,VALID,274.592,VALID,20.096,VALID,151.0,VALID,1.084,
2017-09-12, 07:38:06,VALID,918.924,VALID,0.0,VALID,95.199,VALID,279.755,VALID,20.111,VALID,149.0,VALID,1.278,
2017-09-12, 07:39:06,VALID,918.93,VALID,0.0,VALID,94.636,VALID,283.434,VALID,20.112,VALID,159.0,VALID,1.37,
2017-09-12, 07:40:06,VALID,918.911,VALID,0.0,VALID,94.61,VALID,286.43,VALID,20.16,VALID,144.0,VALID,1.086,
2017-09-12, 07:41:06,VALID,918.901,VALID,0.0,VALID,94.092,VALID,290.335,VALID,20.158,VALID,146.0,VALID,1.151,
2017-09-12, 07:42:06,VALID,918.889,VALID,0.0,VALID,94.089,VALID,291.758,VALID,20.171,VALID,139.0,VALID,1.216,
2017-09-12, 07:43:06,VALID,918.903,VALID,0.0,VALID,93.877,VALID,299.401,VALID,20.171,VALID,139.0,VALID,1.184,
2017-09-12, 07:44:06,VALID,918.9,VALID,0.0,VALID,94.361,VALID,303.755,VALID,20.222,VALID,143.0,VALID,1.38,
2017-09-12, 07:45:06,VALID,918.904,VALID,0.0,VALID,94.183,VALID,308.97,VALID,20.268,VALID,151.0,VALID,1.432,
2017-09-12, 07:46:06,VALID,918.914,VALID,0.0,VALID,93.692,VALID,315.992,VALID,20.298,VALID,158.0,VALID,1.584,
2017-09-12, 07:47:06,VALID,918.912,VALID,0.0,VALID,93.618,VALID,321.415,VALID,20.352,VALID,154.0,VALID,1.422,
2017-09-12, 07:48:06,VALID,918.922,VALID,0.0,VALID,92.832,VALID,325.444,VALID,20.365,VALID,157.0,VALID,1.534,
2017-09-12, 07:49:06,VALID,918.932,VALID,0.0,VALID,93.309,VALID,329.889,VALID,20.447,VALID,150.0,VALID,1.032,
2017-09-12, 07:50:06,VALID,918.937,VALID,0.0,VALID,92.937,VALID,336.771,VALID,20.534,VALID,150.0,VALID,1.344,
2017-09-12, 07:51:06,VALID,918.942,VALID,0.0,VALID,92.535,VALID,342.05,VALID,20.606,VALID,149.0,VALID,1.074,
2017-09-12, 07:52:06,VALID,918.944,VALID,0.0,VALID,92.1,VALID,347.838,VALID,20.695,VALID,142.0,VALID,0.859,
2017-09-12, 07:53:06,VALID,918.933,VALID,0.0,VALID,91.559,VALID,352.449,VALID,20.792,VALID,160.0,VALID,1.237,
2017-09-12, 07:54:06,VALID,918.926,VALID,0.0,VALID,90.279,VALID,357.077,VALID,20.837,VALID,156.0,VALID,1.237,
2017-09-12, 07:55:06,VALID,918.928,VALID,0.0,VALID,90.434,VALID,361.227,VALID,20.891,VALID,158.0,VALID,0.866,
2017-09-12, 07:56:06,VALID,918.929,VALID,0.0,VALID,90.876,VALID,366.114,VALID,20.987,VALID,162.0,VALID,0.47,
2017-09-12, 07:57:06,VALID,918.944,VALID,0.0,VALID,90.92,VALID,369.029,VALID,21.151,VALID,157.0,VALID,0.396,
2017-09-12, 07:58:06,VALID,918.966,VALID,0.0,VALID,89.876,VALID,374.215,VALID,21.279,VALID,163.0,VALID,0.62,
2017-09-12, 07:59:06,VALID,918.999,VALID,0.0,VALID,89.63,VALID,378.232,VALID,21.416,VALID,178.0,VALID,0.704,
2017-09-12, 08:00:06,VALID,919.02,VALID,0.0,VALID,89.081,VALID,383.444,VALID,21.593,VALID,158.0,VALID,1.108,
2017-09-12, 08:01:06,VALID,919.024,VALID,0.0,VALID,88.441,VALID,388.038,VALID,21.658,VALID,140.0,VALID,0.958,
2017-09-12, 08:02:06,VALID,919.039,VALID,0.0,VALID,87.91,VALID,391.744,VALID,21.72,VALID,153.0,VALID,0.985,
2017-09-12, 08:03:06,VALID,919.036,VALID,0.0,VALID,87.32,VALID,396.226,VALID,21.717,VALID,143.0,VALID,1.095,
2017-09-12, 08:04:06,VALID,919.036,VALID,0.0,VALID,87.121,VALID,401.686,VALID,21.671,VALID,145.0,VALID,1.047,
2017-09-12, 08:05:06,VALID,919.056,VALID,0.0,VALID,87.428,VALID,406.488,VALID,21.666,VALID,147.0,VALID,0.863,
2017-09-12, 08:06:06,VALID,919.057,VALID,0.0,VALID,86.981,VALID,411.624,VALID,21.702,VALID,150.0,VALID,0.932,
2017-09-12, 08:07:06,VALID,919.084,VALID,0.0,VALID,86.519,VALID,414.552,VALID,21.734,VALID,152.0,VALID,0.62,
2017-09-12, 08:08:06,VALID,919.117,VALID,0.0,VALID,85.523,VALID,406.108,VALID,21.842,VALID,160.0,VALID,0.646,
2017-09-12, 08:09:06,VALID,919.123,VALID,0.0,VALID,84.892,VALID,400.895,VALID,21.963,VALID,162.0,VALID,0.328,
2017-09-12, 08:10:06,VALID,919.13,VALID,0.0,VALID,83.653,VALID,394.942,VALID,22.152,VALID,131.0,VALID,0.394,
2017-09-12, 08:11:06,VALID,919.137,VALID,0.0,VALID,83.387,VALID,415.614,VALID,22.393,VALID,116.0,VALID,0.29,
2017-09-12, 08:12:06,VALID,919.15,VALID,0.0,VALID,83.267,VALID,427.069,VALID,22.616,VALID,140.0,VALID,0.562,
2017-09-12, 08:13:06,VALID,919.152,VALID,0.0,VALID,80.578,VALID,424.394,VALID,22.708,VALID,125.0,VALID,0.237,
2017-09-12, 08:14:06,VALID,919.164,VALID,0.0,VALID,81.108,VALID,425.307,VALID,22.961,VALID,141.0,VALID,0.633,
2017-09-12, 08:15:06,VALID,919.163,VALID,0.0,VALID,81.048,VALID,436.308,VALID,23.052,VALID,163.0,VALID,0.355,
2017-09-12, 08:16:06,VALID,919.167,VALID,0.0,VALID,81.273,VALID,438.798,VALID,23.264,VALID,176.0,VALID,0.127,
2017-09-12, 08:17:06,VALID,919.174,VALID,0.0,VALID,79.278,VALID,447.34,VALID,23.494,VALID,153.0,VALID,0.634,
2017-09-12, 08:18:06,VALID,919.173,VALID,0.0,VALID,78.578,VALID,433.8,VALID,23.435,VALID,136.0,VALID,0.933,
2017-09-12, 08:19:06,VALID,919.174,VALID,0.0,VALID,79.669,VALID,448.742,VALID,23.23,VALID,171.0,VALID,0.512,
2017-09-12, 08:20:06,VALID,919.176,VALID,0.0,VALID,79.535,VALID,461.691,VALID,23.269,VALID,147.0,VALID,0.959,
2017-09-12, 08:21:06,VALID,919.17,VALID,0.0,VALID,80.689,VALID,463.029,VALID,23.217,VALID,143.0,VALID,1.088,
2017-09-12, 08:22:06,VALID,919.164,VALID,0.0,VALID,82.345,VALID,436.663,VALID,23.12,VALID,162.0,VALID,0.827,
2017-09-12, 08:23:06,VALID,919.169,VALID,0.0,VALID,81.086,VALID,431.638,VALID,23.172,VALID,161.0,VALID,0.808,
2017-09-12, 08:24:06,VALID,919.186,VALID,0.0,VALID,81.016,VALID,431.112,VALID,23.155,VALID,134.0,VALID,0.242,
2017-09-12, 08:25:06,VALID,919.207,VALID,0.0,VALID,81.315,VALID,450.241,VALID,23.366,VALID,162.0,VALID,0.686,
2017-09-12, 08:26:06,VALID,919.219,VALID,0.0,VALID,79.279,VALID,467.234,VALID,23.452,VALID,152.0,VALID,0.575,
2017-09-12, 08:27:06,VALID,919.239,VALID,0.0,VALID,79.614,VALID,456.509,VALID,23.525,VALID,89.0,VALID,0.645,
2017-09-12, 08:28:06,VALID,919.229,VALID,0.0,VALID,79.266,VALID,421.211,VALID,23.56,VALID,69.0,VALID,0.527,
2017-09-12, 08:29:06,VALID,919.216,VALID,0.0,VALID,79.551,VALID,407.339,VALID,23.797,VALID,75.0,VALID,0.533,
2017-09-12, 08:30:06,VALID,919.211,VALID,0.0,VALID,77.522,VALID,460.475,VALID,23.771,VALID,51.0,VALID,0.999,
2017-09-12, 08:31:06,VALID,919.224,VALID,0.0,VALID,76.229,VALID,490.219,VALID,23.646,VALID,47.0,VALID,0.896,
2017-09-12, 08:32:06,VALID,919.245,VALID,0.0,VALID,76.692,VALID,509.034,VALID,23.667,VALID,64.0,VALID,0.711,
2017-09-12, 08:33:06,VALID,919.264,VALID,0.0,VALID,76.479,VALID,529.239,VALID,23.6,VALID,57.0,VALID,0.493,
2017-09-12, 08:34:06,VALID,919.282,VALID,0.0,VALID,76.174,VALID,515.135,VALID,23.617,VALID,44.0,VALID,0.362,
2017-09-12, 08:35:06,VALID,919.3,VALID,0.0,VALID,78.626,VALID,441.069,VALID,23.832,VALID,115.0,VALID,0.348,
2017-09-12, 08:36:06,VALID,919.288,VALID,0.0,VALID,78.497,VALID,427.163,VALID,24.035,VALID,127.0,VALID,0.767,
2017-09-12, 08:37:06,VALID,919.259,VALID,0.0,VALID,77.504,VALID,393.438,VALID,23.887,VALID,119.0,VALID,0.719,
2017-09-12, 08:38:06,VALID,919.224,VALID,0.0,VALID,80.134,VALID,346.614,VALID,23.767,VALID,91.0,VALID,0.652,
2017-09-12, 08:39:06,VALID,919.194,VALID,0.0,VALID,79.076,VALID,451.613,VALID,23.81,VALID,193.0,VALID,0.326,
2017-09-12, 08:40:06,VALID,919.163,VALID,0.0,VALID,78.432,VALID,495.94,VALID,23.831,VALID,134.0,VALID,0.298,
2017-09-12, 08:41:06,VALID,919.158,VALID,0.0,VALID,78.886,VALID,560.922,VALID,24.032,VALID,100.0,VALID,0.543,
2017-09-12, 08:42:06,VALID,919.166,VALID,0.0,VALID,77.37,VALID,576.32,VALID,24.133,VALID,120.0,VALID,0.493,
2017-09-12, 08:43:06,VALID,919.185,VALID,0.0,VALID,75.56,VALID,599.591,VALID,24.134,VALID,95.0,VALID,0.229,
2017-09-12, 08:44:06,VALID,919.206,VALID,0.0,VALID,76.024,VALID,601.491,VALID,24.228,VALID,115.0,VALID,0.719,
2017-09-12, 08:45:06,VALID,919.232,VALID,0.0,VALID,76.069,VALID,610.932,VALID,24.078,VALID,142.0,VALID,0.861,
2017-09-12, 08:46:06,VALID,919.232,VALID,0.0,VALID,76.75,VALID,594.713,VALID,24.007,VALID,174.0,VALID,0.37,
2017-09-12, 08:47:06,VALID,919.236,VALID,0.0,VALID,76.671,VALID,604.792,VALID,24.183,VALID,159.0,VALID,0.411,
2017-09-12, 08:48:06,VALID,919.229,VALID,0.0,VALID,76.945,VALID,613.237,VALID,24.385,VALID,169.0,VALID,0.661,
2017-09-12, 08:49:06,VALID,919.241,VALID,0.0,VALID,74.633,VALID,609.765,VALID,24.586,VALID,187.0,VALID,0.42,
2017-09-12, 08:50:06,VALID,919.232,VALID,0.0,VALID,74.476,VALID,443.906,VALID,24.666,VALID,219.0,VALID,0.205,
2017-09-12, 08:51:06,VALID,919.218,VALID,0.0,VALID,75.248,VALID,405.038,VALID,24.755,VALID,149.0,VALID,0.062,
2017-09-12, 08:52:06,VALID,919.205,VALID,0.0,VALID,75.068,VALID,333.749,VALID,24.933,VALID,110.0,VALID,0.034,
2017-09-12, 08:53:06,VALID,919.184,VALID,0.0,VALID,74.353,VALID,266.359,VALID,25.002,VALID,137.0,VALID,0.481,
2017-09-12, 08:54:06,VALID,919.184,VALID,0.0,VALID,74.689,VALID,307.438,VALID,24.786,VALID,155.0,VALID,0.346,
2017-09-12, 08:55:06,VALID,919.196,VALID,0.0,VALID,74.205,VALID,316.481,VALID,24.551,VALID,153.0,VALID,0.326,
2017-09-12, 08:56:06,VALID,919.2,VALID,0.0,VALID,76.106,VALID,358.187,VALID,24.343,VALID,127.0,VALID,0.213,
2017-09-12, 08:57:06,VALID,919.206,VALID,0.0,VALID,76.253,VALID,448.107,VALID,24.305,VALID,136.0,VALID,0.091,
2017-09-12, 08:58:06,VALID,919.207,VALID,0.0,VALID,76.256,VALID,432.993,VALID,24.41,VALID,102.0,VALID,0.0,
2017-09-12, 08:59:06,VALID,919.206,VALID,0.0,VALID,76.013,VALID,474.759,VALID,24.449,VALID,120.0,VALID,0.318,
2017-09-12, 09:00:06,VALID,919.204,VALID,0.0,VALID,76.177,VALID,466.676,VALID,24.414,VALID,52.0,VALID,0.59,
2017-09-12, 09:01:06,VALID,919.202,VALID,0.0,VALID,76.047,VALID,412.002,VALID,24.315,VALID,10.0,VALID,0.938,
2017-09-12, 09:02:06,VALID,919.203,VALID,0.0,VALID,77.713,VALID,361.122,VALID,24.085,VALID,3.0,VALID,1.111,
2017-09-12, 09:03:06,VALID,919.211,VALID,0.0,VALID,78.245,VALID,398.403,VALID,23.88,VALID,9.0,VALID,0.619,
2017-09-12, 09:04:06,VALID,919.203,VALID,0.0,VALID,78.36,VALID,431.028,VALID,23.74,VALID,12.0,VALID,0.084,
2017-09-12, 09:05:06,VALID,919.2,VALID,0.0,VALID,78.217,VALID,534.616,VALID,23.847,VALID,11.0,VALID,0.0,
2017-09-12, 09:06:06,VALID,919.201,VALID,0.0,VALID,78.064,VALID,477.441,VALID,24.045,VALID,4.0,VALID,0.175,
2017-09-12, 09:07:06,VALID,919.2,VALID,0.0,VALID,78.388,VALID,430.604,VALID,24.238,VALID,34.0,VALID,1.06,
2017-09-12, 09:08:06,VALID,919.219,VALID,0.0,VALID,77.512,VALID,449.289,VALID,24.255,VALID,21.0,VALID,0.568,
2017-09-12, 09:09:06,VALID,919.221,VALID,0.0,VALID,78.568,VALID,470.729,VALID,24.287,VALID,33.0,VALID,0.693,
2017-09-12, 09:10:06,VALID,919.24,VALID,0.0,VALID,78.354,VALID,457.3,VALID,24.481,VALID,343.0,VALID,0.463,
2017-09-12, 09:11:06,VALID,919.244,VALID,0.0,VALID,77.456,VALID,436.766,VALID,24.495,VALID,305.0,VALID,0.258,
2017-09-12, 09:12:06,VALID,919.237,VALID,0.0,VALID,78.143,VALID,439.054,VALID,24.431,VALID,322.0,VALID,0.463,
2017-09-12, 09:13:06,VALID,919.244,VALID,0.0,VALID,78.129,VALID,406.024,VALID,24.462,VALID,358.0,VALID,0.682,
2017-09-12, 09:14:06,VALID,919.246,VALID,0.0,VALID,77.116,VALID,469.595,VALID,24.438,VALID,291.0,VALID,0.586,
2017-09-12, 09:15:06,VALID,919.261,VALID,0.0,VALID,77.55,VALID,532.501,VALID,24.301,VALID,328.0,VALID,0.438,
2017-09-12, 09:16:06,VALID,919.265,VALID,0.0,VALID,78.177,VALID,480.805,VALID,24.282,VALID,14.0,VALID,1.064,
2017-09-12, 09:17:06,VALID,919.271,VALID,0.0,VALID,75.971,VALID,483.358,VALID,24.199,VALID,19.0,VALID,0.269,
2017-09-12, 09:18:06,VALID,919.262,VALID,0.0,VALID,77.561,VALID,525.85,VALID,24.129,VALID,21.0,VALID,0.146,
2017-09-12, 09:19:06,VALID,919.271,VALID,0.0,VALID,78.072,VALID,513.659,VALID,24.334,VALID,5.0,VALID,0.227,
2017-09-12, 09:20:06,VALID,919.28,VALID,0.0,VALID,76.169,VALID,499.487,VALID,24.499,VALID,263.0,VALID,0.561,
2017-09-12, 09:21:06,VALID,919.281,VALID,0.0,VALID,75.742,VALID,437.18,VALID,24.466,VALID,297.0,VALID,0.181,
2017-09-12, 09:22:06,VALID,919.289,VALID,0.0,VALID,76.562,VALID,462.563,VALID,24.492,VALID,294.0,VALID,0.068,
2017-09-12, 09:23:06,VALID,919.302,VALID,0.0,VALID,76.271,VALID,462.76,VALID,24.595,VALID,282.0,VALID,0.348,
2017-09-12, 09:24:06,VALID,919.324,VALID,0.0,VALID,75.001,VALID,429.199,VALID,24.505,VALID,288.0,VALID,0.629,
2017-09-12, 09:25:06,VALID,919.324,VALID,0.0,VALID,75.511,VALID,400.5,VALID,24.353,VALID,272.0,VALID,0.536,
2017-09-12, 09:26:06,VALID,919.342,VALID,0.0,VALID,77.017,VALID,380.288,VALID,24.245,VALID,285.0,VALID,0.382,
2017-09-12, 09:27:06,VALID,919.361,VALID,0.0,VALID,77.073,VALID,338.155,VALID,24.256,VALID,303.0,VALID,0.03,
2017-09-12, 09:28:06,VALID,919.389,VALID,0.0,VALID,76.76,VALID,357.471,VALID,24.373,VALID,317.0,VALID,0.0,
2017-09-12, 09:29:06,VALID,919.4,VALID,0.0,VALID,76.671,VALID,371.163,VALID,24.49,VALID,278.0,VALID,0.049,
2017-09-12, 09:30:06,VALID,919.404,VALID,0.0,VALID,75.485,VALID,394.128,VALID,24.483,VALID,247.0,VALID,0.107,
2017-09-12, 09:31:06,VALID,919.407,VALID,0.0,VALID,74.447,VALID,363.034,VALID,24.454,VALID,259.0,VALID,0.485,
2017-09-12, 09:32:06,VALID,919.392,VALID,0.0,VALID,74.76,VALID,396.725,VALID,24.443,VALID,291.0,VALID,0.12,
2017-09-12, 09:33:06,VALID,919.385,VALID,0.0,VALID,75.041,VALID,331.803,VALID,24.544,VALID,1.0,VALID,0.706,
2017-09-12, 09:34:06,VALID,919.393,VALID,0.0,VALID,72.865,VALID,359.894,VALID,24.737,VALID,326.0,VALID,0.183,
2017-09-12, 09:35:06,VALID,919.393,VALID,0.0,VALID,71.942,VALID,426.442,VALID,24.834,VALID,9.0,VALID,1.038,
2017-09-12, 09:36:06,VALID,919.403,VALID,0.0,VALID,73.217,VALID,457.603,VALID,24.806,VALID,360.0,VALID,0.755,
2017-09-12, 09:37:06,VALID,919.411,VALID,0.0,VALID,74.839,VALID,551.867,VALID,24.702,VALID,31.0,VALID,0.336,
2017-09-12, 09:38:06,VALID,919.423,VALID,0.0,VALID,74.883,VALID,429.826,VALID,24.895,VALID,30.0,VALID,0.191,
2017-09-12, 09:39:06,VALID,919.426,VALID,0.0,VALID,74.207,VALID,460.132,VALID,25.175,VALID,27.0,VALID,0.097,
2017-09-12, 09:40:06,VALID,919.426,VALID,0.0,VALID,73.313,VALID,491.689,VALID,25.43,VALID,19.0,VALID,0.128,
2017-09-12, 09:41:06,VALID,919.416,VALID,0.0,VALID,72.406,VALID,449.513,VALID,25.68,VALID,354.0,VALID,0.076,
2017-09-12, 09:42:06,VALID,919.416,VALID,0.0,VALID,70.875,VALID,471.682,VALID,25.839,VALID,274.0,VALID,0.137,
2017-09-12, 09:43:06,VALID,919.405,VALID,0.0,VALID,71.08,VALID,370.762,VALID,25.711,VALID,326.0,VALID,0.32,
2017-09-12, 09:44:06,VALID,919.424,VALID,0.0,VALID,71.679,VALID,389.379,VALID,25.648,VALID,326.0,VALID,0.174,
2017-09-12, 09:45:06,VALID,919.424,VALID,0.0,VALID,72.069,VALID,429.118,VALID,25.526,VALID,297.0,VALID,0.246,
2017-09-12, 09:46:06,VALID,919.436,VALID,0.0,VALID,71.253,VALID,643.463,VALID,25.411,VALID,250.0,VALID,0.017,
2017-09-12, 09:47:06,VALID,919.43,VALID,0.0,VALID,72.217,VALID,745.239,VALID,25.534,VALID,260.0,VALID,0.029,
2017-09-12, 09:48:06,VALID,919.426,VALID,0.0,VALID,71.645,VALID,809.481,VALID,25.617,VALID,295.0,VALID,0.541,
2017-09-12, 09:49:06,VALID,919.432,VALID,0.0,VALID,73.111,VALID,825.519,VALID,25.448,VALID,269.0,VALID,0.434,
2017-09-12, 09:50:06,VALID,919.422,VALID,0.0,VALID,73.782,VALID,860.605,VALID,25.293,VALID,272.0,VALID,0.608,
2017-09-12, 09:51:06,VALID,919.423,VALID,0.0,VALID,74.083,VALID,883.4,VALID,25.269,VALID,340.0,VALID,0.394,
2017-09-12, 09:52:06,VALID,919.426,VALID,0.0,VALID,74.586,VALID,883.656,VALID,25.264,VALID,310.0,VALID,0.481,
2017-09-12, 09:53:06,VALID,919.421,VALID,0.0,VALID,73.805,VALID,872.357,VALID,25.246,VALID,300.0,VALID,0.909,
2017-09-12, 09:54:06,VALID,919.417,VALID,0.0,VALID,74.745,VALID,867.7,VALID,24.973,VALID,298.0,VALID,0.953,
2017-09-12, 09:55:06,VALID,919.419,VALID,0.0,VALID,76.102,VALID,874.332,VALID,24.748,VALID,291.0,VALID,1.073,
2017-09-12, 09:56:06,VALID,919.41,VALID,0.0,VALID,77.141,VALID,834.986,VALID,24.563,VALID,301.0,VALID,1.013,
2017-09-12, 09:57:06,VALID,919.396,VALID,0.0,VALID,77.125,VALID,834.438,VALID,24.49,VALID,274.0,VALID,0.359,
2017-09-12, 09:58:06,VALID,919.407,VALID,0.0,VALID,77.882,VALID,864.864,VALID,24.715,VALID,294.0,VALID,1.1,
2017-09-12, 09:59:06,VALID,919.409,VALID,0.0,VALID,77.037,VALID,812.647,VALID,24.736,VALID,283.0,VALID,0.837,
2017-09-12, 10:00:06,VALID,919.397,VALID,0.0,VALID,78.448,VALID,799.554,VALID,24.931,VALID,20.0,VALID,0.889,
2017-09-12, 10:01:06,VALID,919.379,VALID,0.0,VALID,75.848,VALID,773.763,VALID,25.351,VALID,9.0,VALID,1.259,
2017-09-12, 10:02:06,VALID,919.364,VALID,0.0,VALID,76.027,VALID,794.718,VALID,25.674,VALID,345.0,VALID,0.99,
2017-09-12, 10:03:06,VALID,919.337,VALID,0.0,VALID,75.156,VALID,751.792,VALID,25.809,VALID,352.0,VALID,1.588,
2017-09-12, 10:04:06,VALID,919.341,VALID,0.0,VALID,72.567,VALID,785.723,VALID,25.799,VALID,289.0,VALID,0.724,
2017-09-12, 10:05:06,VALID,919.332,VALID,0.0,VALID,72.883,VALID,919.938,VALID,25.66,VALID,295.0,VALID,0.664,
2017-09-12, 10:06:06,VALID,919.345,VALID,0.0,VALID,72.74,VALID,931.634,VALID,25.596,VALID,284.0,VALID,0.639,
2017-09-12, 10:07:06,VALID,919.35,VALID,0.0,VALID,73.837,VALID,871.652,VALID,25.58,VALID,279.0,VALID,0.932,
2017-09-12, 10:08:06,VALID,919.351,VALID,0.0,VALID,73.899,VALID,781.807,VALID,25.613,VALID,298.0,VALID,0.746,
2017-09-12, 10:09:06,VALID,919.365,VALID,0.0,VALID,73.635,VALID,804.488,VALID,25.537,VALID,249.0,VALID,1.606,
2017-09-12, 10:10:06,VALID,919.353,VALID,0.0,VALID,74.296,VALID,626.296,VALID,25.131,VALID,242.0,VALID,0.332,
2017-09-12, 10:11:06,VALID,919.332,VALID,0.0,VALID,75.875,VALID,536.676,VALID,25.151,VALID,285.0,VALID,0.243,
2017-09-12, 10:12:06,VALID,919.335,VALID,0.0,VALID,75.316,VALID,375.02,VALID,25.433,VALID,276.0,VALID,0.63,
2017-09-12, 10:13:06,VALID,919.338,VALID,0.0,VALID,73.038,VALID,388.319,VALID,25.372,VALID,252.0,VALID,1.868,
2017-09-12, 10:14:06,VALID,919.305,VALID,0.0,VALID,74.421,VALID,447.592,VALID,25.038,VALID,251.0,VALID,0.468,
2017-09-12, 10:15:06,VALID,919.303,VALID,0.0,VALID,75.656,VALID,593.992,VALID,25.037,VALID,267.0,VALID,0.578,
2017-09-12, 10:16:06,VALID,919.298,VALID,0.0,VALID,75.141,VALID,713.43,VALID,25.08,VALID,254.0,VALID,0.652,
2017-09-12, 10:17:06,VALID,919.294,VALID,0.0,VALID,76.489,VALID,755.721,VALID,25.224,VALID,83.0,VALID,0.195,
2017-09-12, 10:18:06,VALID,919.295,VALID,0.0,VALID,76.128,VALID,787.678,VALID,25.658,VALID,355.0,VALID,0.582,
2017-09-12, 10:19:06,VALID,919.293,VALID,0.0,VALID,73.746,VALID,716.503,VALID,25.955,VALID,270.0,VALID,0.896,
2017-09-12, 10:20:06,VALID,919.284,VALID,0.0,VALID,73.027,VALID,491.371,VALID,25.746,VALID,236.0,VALID,0.584,
2017-09-12, 10:21:06,VALID,919.283,VALID,0.0,VALID,73.204,VALID,733.392,VALID,25.72,VALID,242.0,VALID,0.146,
2017-09-12, 10:22:06,VALID,919.288,VALID,0.0,VALID,74.278,VALID,745.714,VALID,25.882,VALID,264.0,VALID,0.173,
2017-09-12, 10:23:06,VALID,919.281,VALID,0.0,VALID,72.802,VALID,758.441,VALID,26.052,VALID,263.0,VALID,0.474,
2017-09-12, 10:24:06,VALID,919.276,VALID,0.0,VALID,71.93,VALID,841.394,VALID,25.908,VALID,248.0,VALID,1.495,
2017-09-12, 10:25:06,VALID,919.264,VALID,0.0,VALID,73.332,VALID,884.372,VALID,25.639,VALID,267.0,VALID,1.11,
2017-09-12, 10:26:06,VALID,919.259,VALID,0.0,VALID,73.242,VALID,899.389,VALID,25.575,VALID,268.0,VALID,1.102,
2017-09-12, 10:27:06,VALID,919.248,VALID,0.0,VALID,73.673,VALID,902.086,VALID,25.683,VALID,245.0,VALID,0.559,
2017-09-12, 10:28:06,VALID,919.248,VALID,0.0,VALID,73.246,VALID,908.164,VALID,25.8,VALID,266.0,VALID,0.99,
2017-09-12, 10:29:06,VALID,919.235,VALID,0.0,VALID,72.593,VALID,917.649,VALID,25.87,VALID,247.0,VALID,0.552,
